COSMOS 1275 DEB, 42228

Orbit data source: Space-Track

COSMOS 1275 DEB, 42228 is space debris in LEO originally from a launch on Thu, 04 Jun 1981 UTC launched from the Plesetsk Missile And Space Complex (PKMTR). Debris objects in space refer to the collection of defunct objects orbiting the Earth. Examples of debris include non-operational satellites, rocket bodies, and fragments generated from explosions, collisions, or faulty payload assembly.

Loading next visibility...
Identifier
42228, 1981-053UU
Orbit
LEO
Country
Flag of CISCIS
Related business
Manufacturer
Unknown
Mission
Spacecraft
Bus & Motor
Unknown
Mass
Unknown
Launch date (UTC)
1981-06-04 (45 years ago)
Launch vehicle
Unknown
Launch site
Plesetsk Missile And Space Complex (PKMTR)
Object type
Payload
Rocket body
Debris
Shape & HBR
Unknown shape, 0.1 m
Radar Cross Section
Small (<0.1 m²)

Expand to show TLE details & history
Last TLE update: 2 weeks ago

TLE from 2 weeks ago
0 COSMOS 1275 DEB
1 42228U 81053UU  26223.48518857  .00000267  00000-0  22998-3 0  9994
2 42228  82.9365 141.7290 0039081 211.9579 147.9211 13.82782558 89384
Epoch: 2026-08-11T11:38Z
TLE epoch observation values (Epoch: 2026-08-11T11:38:40.292Z)
Latitude
-0.00004°
Longitude
7.10831°
Altitude
981.26 km
Speed
7.349 km/s
True Right ascension
09h 26m 54s
True Declination
0° 00' 00"
Sunlit
Object was in daylight at epoch
Visualization orbit readout
Latitude
Unknown
Longitude
Unknown
Altitude
Unknown
Speed
Unknown
Apparent Right ascension
Unknown
Apparent Declination
Unknown
Sunlit
N/A
Visualization observer readout
Local Sidereal Time
02:12:47
Azimuth
Unknown
Elevation
Unknown
Doppler factor
Unknown
Orbital elements
Apogee altitude
979.816 km
Perigee altitude
922.528 km
Semi-major axis
7,329.309 km
Eccentricity
0.00391
Inclination
82.9365°
RAAN
141.729°
Arg. of periapsis
211.9579°
True anomaly
148.15796°
Mean anomaly
147.9211°
Eccentric anomaly
148.03963°
Mean motion
3.45898 °/min
Orbital period
104.08 mins
BSTAR
0.00022998
Loading maneuver chart data...
Computing Atmospheric mass density...
Loading historical data...
Loading historical data...
Loading historical data...
Loading historical data...
Loading historical data...
Loading historical data...
Loading historical data...

Documentation

Showing up to 5 results
|